星链-2593 (STARLINK-2593 )

导读

STARLINK-2593是美国SpaceX公司星链星座中的一颗低轨通信卫星,于北京时间2021年5月4日发射入轨。它运行在约550公里高度的近地轨道,属于星链第一代组网卫星,采用Ku/Ka频段提供通信服务,依托低轨布局降低传输延迟,为全球用户提供宽带互联网接入服务,是SpaceX构建全球低轨互联网星座计划的组成单元。

基本信息
目录编号:
48404
目录名称:
STARLINK-2593
国际标识:
2021-038BD
轨道中心:
EARTH
卫星名称:
星链-2593
卫星全名:
星链-2593 (STARLINK-2593 )
卫星状态:
在轨 (已飞行1871 天)
发射日期:
2021-05-04 UTC
国别 :
美国 (US)
星等 :
--
轨道信息
数据来源 国际轨道数据 AOE轨道数据
星历时间 2026-06-17T19:41:58+0800
1天前
查看轨道信息
2026-06-17T07:00:00+0800
1天前
查看轨道信息
半长轴 6848.877km 6848.909km
偏心率 0.0001446 0.0001509
轨道倾角 53.159° 53.159°
近地点辐角 92.775° 59.369°
升交点赤经 228.402° 230.868°
平近点角 267.342° 261.326°
近地点 469.749km 469.738km
远地点 471.731km 471.806km
周期 94.013分钟 94.014分钟
每日圈数 15.317001 15.316895
详细信息
固有亮度:
5
最大亮度:
2.5
卫星平台:
Starlink V1.0
覆盖范围:
全球
运营商:
太空探索技术公司
运营商所在国:
美国
制造商(研发单位):
太空探索技术公司
制造商所在国:
美国
使用方式:
暂无
卫星简介
星链(Starlink)计划是由太空探索技术公司(SpaceX)提出的一个巨型低轨卫星互联网星座项目,计划在2019年至2024年间在太空搭建由约1.2万颗卫星组成的“星链”网络,其中1584颗将部署在地球上空550千米处的近地轨道,并从2020年开始工作。该卫星仍在工作。
2D轨道图
3D轨道图
轨道高度分析图
轨道倾角分析图
轨道综合分析图
查看轨道综合分析图